Flag for Germany Weather past 2 weeks in Potsdam, Brandenburg, Germany

Now
55 °F

Partly sunny.


Feels Like: 55 °F
Forecast: 34 / 59 °F
Wind: 3 mph from Northwest

Location: Potsdam


UV Index: 3 (Moderate)

Visibility: 34 mi


Pressure: 30.44 "Hg

Humidity: 27%

Dew point: 21 °F

Location of PotsdamLocation

Historic Weather in Potsdam

°F

Potsdam temperature yesterday

Maximum temperature yesterday: 52 °F (at 1:00 PM)
Minimum temperature yesterday: 40 °F (at 5:00 AM)
Average temperature yesterday: 46 °F

Past Weeks' High & Low Weather Summary

 TemperatureHumidityPressure
High72 °F (Apr 3, 4:00 PM)99% (Apr 12, 4:00 AM)30.46 "Hg (Apr 12, 4:00 AM)
Low34 °F (Apr 16, 6:00 AM)27% (Apr 16, 3:00 PM)29.65 "Hg (Apr 3, 6:00 AM)
Average51 °F72%29.97 "Hg
* Reported Apr 1 3:00 PM — Apr 16 3:00 PM, Potsdam, Weather by CustomWeather, © 2014

Note: Actual official high and low records may vary slightly from our data, if they occured in-between our weather recording intervals... More about our weather records

Advertising

Historic Weather Conditions — Data for Previous 24 hours

 ConditionsComfort  
Time TempWeatherWind HumidityBarometerVisibility
3:00 PM
Apr 16
55 °FPartly sunny.3 mph27%30.44 "Hg34 mi
2:00 PM53 °FPartly sunny.2 mph31%30.45 "Hg34 mi
1:00 PM54 °FPassing clouds.2 mph31%30.45 "Hg43 mi
12:00 PM51 °FPassing clouds.3 mph41%30.45 "Hg34 mi
11:00 AM49 °FPassing clouds.2 mph54%30.46 "Hg34 mi
10:00 AM46 °FScattered clouds.3 mph68%30.46 "Hg28 mi
9:00 AM42 °FPassing clouds.2 mph88%30.45 "Hg19 mi
8:00 AM37 °FPassing clouds.2 mph98%30.43 "Hg16 mi
7:00 AM35 °FFog.3 mph98%30.41 "Hg14 mi
6:00 AM34 °FClear.3 mph97%30.39 "Hg19 mi
5:00 AM36 °FClear.3 mph97%30.37 "Hg31 mi
4:00 AM37 °FClear.3 mph95%30.35 "Hg31 mi
3:00 AM37 °FClear.3 mph94%30.34 "Hg31 mi
1:00 AM39 °FPassing clouds.3 mph88%30.30 "Hg31 mi
12:00 AM40 °FPassing clouds.3 mph87%30.29 "Hg31 mi
11:00 PM
Apr 15
43 °FLight rain. Passing clouds.5 mph78%30.26 "Hg31 mi
10:00 PM43 °FPassing clouds.5 mph78%30.24 "Hg31 mi
9:00 PM44 °FPassing clouds.3 mph75%30.22 "Hg28 mi
8:00 PM46 °FPartly sunny.5 mph72%30.18 "Hg28 mi
7:00 PM46 °FPartly sunny.5 mph72%30.16 "Hg28 mi
6:00 PM48 °FOvercast.6 mph66%30.13 "Hg28 mi
5:00 PM48 °FOvercast.5 mph69%30.12 "Hg19 mi
4:00 PM49 °FSprinkles. Partly sunny.7 mph66%30.10 "Hg28 mi
Weather by CustomWeather, © 2014

See weather overview